Weather History for Soldotna, AK

Change the Weather History Date:

Tuesday, September 24, 2013

  Actual Average Record
Temperature  
Mean Temperature 32 °F -  
Max Temperature 42 °F 51 °F 60 °F (1952)
Min Temperature 21 °F 34 °F 17 °F (1992)
Degree Days  
Heating Degree Days 34    
Moisture  
Dew Point 26 °F    
Average Humidity 71    
Maximum Humidity 93    
Minimum Humidity 53    
Precipitation  
Precipitation 0.05 in - - ()
Sea Level Pressure  
Sea Level Pressure 29.89 in    
Wind  
Wind Speed 3 mph (ENE)    
Max Wind Speed 12 mph    
Max Gust Speed -    
Visibility 10 miles    
Events      
Averages and records for this station are not official NWS values.
T = Trace of Precipitation, MM = Missing Value Source: NWS Daily Summary

Daily Weather History Graph

Daily Weather History Graph

Search for Another Location

Airport:

Trip Planner

Search our weather history database for the weather conditions in past years. The results will help you decide how hot, cold, wet, or windy it might be!

Date:

Astronomy

Sep. 24, 2013 Rise Set
Actual Time 7:54 AM AKDT 7:56 PM AKDT
Civil Twilight 7:12 AM AKDT 8:38 PM AKDT
Nautical Twilight 6:21 AM AKDT 9:28 PM AKDT
Astronomical Twilight 5:26 AM AKDT 10:22 PM AKDT
Moon 9:56 PM AKDT (9/24) 2:42 PM AKDT (9/24)
Length of Visible Light 13h 26m
Length of Day
12h 02m
Waning Gibbous, 72% of the Moon is Illuminated
Sep 24
Waning Gibbous
Sep 26
Last Quarter
Oct 4
New
Oct 11
First Quarter
Oct 18
Full

Hourly Weather History & Observations

Time (AKDT) Temp. Windchill Dew Point Humidity Pressure Visibility Wind Dir Wind Speed Gust Speed Precip Events Conditions
12:16 AM 26.6 °F - 21.2 °F 80% 29.76 in 10.0 mi Calm Calm - N/A   Clear
12:36 AM 28.4 °F 23.3 °F 23.0 °F 80% 29.76 in 10.0 mi ENE 4.6 mph - N/A   Clear
12:56 AM 28.4 °F 23.3 °F 21.2 °F 74% 29.77 in 10.0 mi ENE 4.6 mph - N/A   Clear
1:16 AM 28.4 °F 23.3 °F 21.2 °F 74% 29.78 in 10.0 mi East 4.6 mph - N/A   Clear
1:36 AM 28.4 °F 23.3 °F 21.2 °F 74% 29.79 in 10.0 mi East 4.6 mph - N/A   Clear
1:56 AM 28.4 °F 23.3 °F 23.0 °F 80% 29.79 in 10.0 mi East 4.6 mph - N/A   Clear
2:16 AM 28.4 °F 23.3 °F 21.2 °F 74% 29.80 in 10.0 mi ENE 4.6 mph - N/A   Clear
2:36 AM 26.6 °F - 21.2 °F 80% 29.81 in 10.0 mi Calm Calm - N/A   Clear
2:56 AM 24.8 °F - 19.4 °F 80% 29.82 in 10.0 mi Calm Calm - N/A   Clear
3:16 AM 24.8 °F - 19.4 °F 80% 29.83 in 10.0 mi Calm Calm - N/A   Clear
3:36 AM 26.6 °F 22.6 °F 23.0 °F 86% 29.83 in 10.0 mi East 3.5 mph - N/A   Clear
3:56 AM 26.6 °F 22.6 °F 24.8 °F 93% 29.84 in 10.0 mi East 3.5 mph - N/A   Clear
4:16 AM 26.6 °F 21.2 °F 21.2 °F 80% 29.84 in 10.0 mi East 4.6 mph - N/A   Clear
4:36 AM 24.8 °F 19.1 °F 19.4 °F 80% 29.84 in 10.0 mi East 4.6 mph - N/A   Clear
4:56 AM 26.6 °F 22.6 °F 21.2 °F 80% 29.86 in 10.0 mi East 3.5 mph - N/A   Clear
5:16 AM 26.6 °F 22.6 °F 21.2 °F 80% 29.87 in 10.0 mi East 3.5 mph - N/A   Clear
5:36 AM 26.6 °F 22.6 °F 21.2 °F 80% 29.87 in 10.0 mi East 3.5 mph - N/A   Clear
5:56 AM 26.6 °F 22.6 °F 21.2 °F 80% 29.87 in 10.0 mi ENE 3.5 mph - N/A   Clear
6:16 AM 26.6 °F - 21.2 °F 80% 29.89 in 10.0 mi Calm Calm - N/A   Clear
6:36 AM 24.8 °F - 19.4 °F 80% 29.90 in 10.0 mi Calm Calm - N/A   Clear
6:56 AM 24.8 °F 20.5 °F 19.4 °F 80% 29.90 in 10.0 mi ENE 3.5 mph - N/A   Clear
7:16 AM 23.0 °F - 19.4 °F 86% 29.91 in 10.0 mi Calm Calm - N/A   Clear
7:36 AM 24.8 °F - 19.4 °F 80% 29.91 in 10.0 mi Calm Calm - N/A   Clear
7:56 AM 23.0 °F 18.4 °F 17.6 °F 80% 29.91 in 10.0 mi ENE 3.5 mph - N/A   Clear
8:16 AM 21.2 °F - 19.4 °F 93% 29.92 in 10.0 mi Calm Calm - N/A   Clear
8:36 AM 24.8 °F - 19.4 °F 80% 29.92 in 10.0 mi Calm Calm - N/A   Clear
8:56 AM 24.8 °F 17.9 °F 21.2 °F 86% 29.92 in 10.0 mi East 5.8 mph - N/A   Clear
9:16 AM 26.6 °F 21.2 °F 23.0 °F 86% 29.93 in 10.0 mi East 4.6 mph - N/A   Clear
9:36 AM 28.4 °F 22.2 °F 24.8 °F 86% 29.93 in 10.0 mi East 5.8 mph - N/A   Clear
9:56 AM 30.2 °F 24.3 °F 24.8 °F 80% 29.93 in 10.0 mi ESE 5.8 mph - N/A   Clear
10:16 AM 33.8 °F 29.6 °F 26.6 °F 75% 29.93 in 10.0 mi East 4.6 mph - N/A   Clear
10:36 AM 35.6 °F 32.8 °F 26.6 °F 70% 29.93 in 10.0 mi East 3.5 mph - N/A   Clear
10:56 AM 37.4 °F 32.1 °F 26.6 °F 65% 29.94 in 10.0 mi NE 6.9 mph - N/A   Clear
11:16 AM 37.4 °F 31.4 °F 26.6 °F 65% 29.94 in 10.0 mi ESE 8.1 mph - N/A   Clear
11:36 AM 37.4 °F 32.1 °F 28.4 °F 70% 29.94 in 8.0 mi ESE 6.9 mph - N/A   Clear
11:56 AM 39.2 °F 32.0 °F 26.6 °F 61% 29.95 in 10.0 mi ENE 11.5 mph - N/A   Clear
12:16 PM 39.2 °F 33.6 °F 26.6 °F 61% 29.95 in 10.0 mi NE 8.1 mph - N/A   Clear
12:36 PM 41.0 °F 37.1 °F 28.4 °F 61% 29.95 in 10.0 mi NE 5.8 mph - N/A   Clear
12:56 PM 41.0 °F 37.1 °F 26.6 °F 57% 29.95 in 10.0 mi NNE 5.8 mph - N/A   Clear
1:16 PM 41.0 °F 36.4 °F 26.6 °F 57% 29.95 in 10.0 mi NNE 6.9 mph - N/A   Clear
1:36 PM 42.8 °F 39.3 °F 26.6 °F 53% 29.95 in 10.0 mi NE 5.8 mph - N/A   Clear
1:56 PM 42.8 °F 38.0 °F 26.6 °F 53% 29.95 in 10.0 mi ENE 8.1 mph - N/A   Clear
2:16 PM 42.8 °F 38.0 °F 26.6 °F 53% 29.95 in 10.0 mi NE 8.1 mph - N/A   Clear
2:36 PM 42.8 °F 38.0 °F 26.6 °F 53% 29.95 in 10.0 mi ENE 8.1 mph - N/A   Clear
2:56 PM 42.8 °F 38.6 °F 26.6 °F 53% 29.94 in 10.0 mi NE 6.9 mph - N/A   Clear
3:16 PM 42.8 °F 39.3 °F 26.6 °F 53% 29.94 in 10.0 mi ENE 5.8 mph - N/A   Clear
3:36 PM 42.8 °F 38.6 °F 28.4 °F 57% 29.94 in 10.0 mi NE 6.9 mph - N/A   Clear
3:56 PM 42.8 °F 39.3 °F 28.4 °F 57% 29.93 in 10.0 mi ENE 5.8 mph - N/A   Partly Cloudy
4:16 PM 42.8 °F 38.6 °F 28.4 °F 57% 29.93 in 10.0 mi ENE 6.9 mph - N/A   Clear
4:36 PM 42.8 °F 40.1 °F 28.4 °F 57% 29.93 in 10.0 mi NE 4.6 mph - N/A   Clear
4:56 PM 42.8 °F 38.6 °F 28.4 °F 57% 29.91 in 10.0 mi ENE 6.9 mph - N/A   Mostly Cloudy
5:16 PM 42.8 °F 41.1 °F 28.4 °F 57% 29.92 in 10.0 mi NNE 3.5 mph - N/A   Overcast
5:36 PM 42.8 °F 40.1 °F 28.4 °F 57% 29.91 in 10.0 mi NE 4.6 mph - N/A   Overcast
5:56 PM 42.8 °F 40.1 °F 28.4 °F 57% 29.91 in 10.0 mi NE 4.6 mph - N/A   Overcast
6:16 PM 42.8 °F 41.1 °F 28.4 °F 57% 29.91 in 10.0 mi NNE 3.5 mph - N/A   Overcast
6:36 PM 42.8 °F 41.1 °F 28.4 °F 57% 29.92 in 10.0 mi NNE 3.5 mph - N/A   Overcast
6:56 PM 42.8 °F 41.1 °F 28.4 °F 57% 29.90 in 10.0 mi NNE 3.5 mph - N/A   Overcast
7:16 PM 42.8 °F 41.1 °F 28.4 °F 57% 29.89 in 10.0 mi NNE 3.5 mph - N/A   Overcast
7:36 PM 42.8 °F - 28.4 °F 57% 29.89 in 10.0 mi Calm Calm - N/A   Overcast
7:56 PM 42.8 °F - 30.2 °F 61% 29.89 in 10.0 mi Calm Calm - N/A   Overcast
8:16 PM 41.0 °F 39.0 °F 30.2 °F 65% 29.88 in 10.0 mi NE 3.5 mph - N/A   Overcast
8:36 PM 41.0 °F 39.0 °F 30.2 °F 65% 29.87 in 10.0 mi ENE 3.5 mph - N/A   Overcast
8:56 PM 41.0 °F - 30.2 °F 65% 29.87 in 10.0 mi Calm Calm - N/A   Overcast
9:16 PM 41.0 °F - 30.2 °F 65% 29.86 in 10.0 mi Calm Calm - N/A   Overcast
9:36 PM 41.0 °F - 30.2 °F 65% 29.86 in 10.0 mi Calm Calm - N/A   Overcast
9:56 PM 41.0 °F - 30.2 °F 65% 29.85 in 10.0 mi Calm Calm - N/A   Overcast
10:16 PM 39.2 °F - 32.0 °F 75% 29.85 in 10.0 mi Calm Calm - N/A   Overcast
10:36 PM 39.2 °F 37.0 °F 33.8 °F 81% 29.83 in 10.0 mi East 3.5 mph - N/A   Overcast
10:56 PM 39.2 °F - 33.8 °F 81% 29.83 in 10.0 mi Calm Calm - N/A   Overcast
11:16 PM 39.2 °F - 35.6 °F 87% 29.83 in 10.0 mi Calm Calm - N/A   Overcast
11:36 PM 39.2 °F - 35.6 °F 87% 29.82 in 7.0 mi Calm Calm - 0.02 in   Overcast
11:56 PM 39.2 °F - 35.6 °F 87% 29.81 in 8.0 mi Calm Calm - 0.05 in   Overcast